Weather History for KFME - January, 2014

Change the Weather History Date:

Sunday, January 12, 2014

  Actual Average (KBWI) Record (KBWI)
Temperature  
Mean Temperature 39 °F 33 °F  
Max Temperature 50 °F 41 °F 70 °F (1890)
Min Temperature 28 °F 24 °F 1 °F (1981)
Degree Days  
Heating Degree Days 26 32  
Month to date heating degree days 384  
Since 1 July heating degree days 2165  
Cooling Degree Days 0 0  
Month to date cooling degree days 0  
Year to date cooling degree days 0  
Moisture  
Dew Point 31 °F    
Average Humidity 74    
Maximum Humidity 100    
Minimum Humidity 50    
Precipitation  
Precipitation 0.00 in 0.10 in 2.84 in (1915)
Month to date precipitation 1.16  
Year to date precipitation 1.16  
Snow  
Snow 0.00 in 0.20 in 6.00 in (1996)
Month to date snowfall 2.0  
Since 1 July snowfall 5.4  
Snow Depth -    
Sea Level Pressure  
Sea Level Pressure 29.92 in    
Wind  
Wind Speed 8 mph (WNW)    
Max Wind Speed 18 mph    
Max Gust Speed 30 mph    
Visibility 10 miles    
Events      
T = Trace of Precipitation, MM = Missing Value Source: NWS Daily Summary

Daily Weather History Graph

Daily Weather History Graph

Search for Another Location

Airport or City:

Trip Planner

Search our weather history database for the weather conditions in past years. The results will help you decide how hot, cold, wet, or windy it might be!

Date:

Astronomy

Jan. 12, 2014 Rise Set
Actual Time 7:25 AM EST 5:05 PM EST
Civil Twilight 6:56 AM EST 5:35 PM EST
Nautical Twilight 6:23 AM EST 6:08 PM EST
Astronomical Twilight 5:50 AM EST 6:40 PM EST
Moon 2:31 PM EST (1/12) 4:22 AM EST (1/12)
Length of Visible Light 10h 38m
Length of Day
9h 40m
Waxing Gibbous, 89% of the Moon is Illuminated
Jan 12
Waxing Gibbous
Jan 15
Full
Jan 24
Last Quarter
Jan 30
New
Feb 6
First Quarter

Hourly Weather History & Observations

Time (EST) Temp. Windchill Dew Point Humidity Pressure Visibility Wind Dir Wind Speed Gust Speed Precip Events Conditions
12:18 AM 46.4 °F 41.1 °F 44.6 °F 93% 29.57 in 10.0 mi WNW 11.5 mph 21.9 mph N/A   Overcast
12:36 AM 48.2 °F - 41.0 °F 76% 29.57 in 10.0 mi WNW 10.4 mph 19.6 mph N/A   Overcast
12:57 AM 46.4 °F 40.1 °F 39.2 °F 76% 29.59 in 10.0 mi West 15.0 mph 24.2 mph N/A   Scattered Clouds
1:18 AM 46.4 °F 41.5 °F 37.4 °F 71% 29.60 in 10.0 mi West 10.4 mph - N/A   Clear
1:36 AM 44.6 °F 39.2 °F 35.6 °F 71% 29.62 in 10.0 mi WNW 10.4 mph 16.1 mph N/A   Scattered Clouds
1:57 AM 44.6 °F 38.4 °F 35.6 °F 71% 29.65 in 10.0 mi NW 12.7 mph 24.2 mph N/A   Clear
2:18 AM 42.8 °F 37.0 °F 33.8 °F 70% 29.66 in 10.0 mi WNW 10.4 mph - N/A   Clear
2:36 AM 42.8 °F 40.1 °F 32.0 °F 66% 29.67 in 10.0 mi NW 4.6 mph - N/A   Scattered Clouds
2:57 AM 41.0 °F 37.1 °F 33.8 °F 76% 29.67 in 10.0 mi WNW 5.8 mph - N/A   Mostly Cloudy
3:18 AM 41.0 °F 38.0 °F 33.8 °F 76% 29.67 in 10.0 mi West 4.6 mph - N/A   Mostly Cloudy
3:39 AM 37.4 °F 34.9 °F 33.8 °F 87% 29.68 in 10.0 mi WNW 3.5 mph - N/A   Scattered Clouds
3:57 AM 37.4 °F 34.9 °F 32.0 °F 81% 29.68 in 10.0 mi West 3.5 mph - N/A   Scattered Clouds
4:18 AM 35.6 °F - 32.0 °F 87% 29.68 in 10.0 mi Calm Calm - N/A   Clear
4:39 AM 35.6 °F 31.7 °F 32.0 °F 87% 29.69 in 10.0 mi WSW 4.6 mph - N/A   Scattered Clouds
4:57 AM 35.6 °F 31.7 °F 32.0 °F 87% 29.70 in 10.0 mi West 4.6 mph - N/A   Scattered Clouds
5:18 AM 35.6 °F 30.7 °F 32.0 °F 87% 29.71 in 10.0 mi WNW 5.8 mph - N/A   Scattered Clouds
5:39 AM 35.6 °F 30.7 °F 32.0 °F 87% 29.73 in 10.0 mi WNW 5.8 mph - N/A   Clear
5:57 AM 37.4 °F 30.8 °F 32.0 °F 81% 29.75 in 10.0 mi WNW 9.2 mph - N/A   Clear
6:18 AM 37.4 °F 32.8 °F 32.0 °F 81% 29.77 in 10.0 mi NW 5.8 mph - N/A   Clear
6:39 AM 35.6 °F 27.5 °F 32.0 °F 87% 29.78 in 10.0 mi West 11.5 mph 21.9 mph N/A   Clear
6:57 AM 39.2 °F 33.6 °F 30.2 °F 70% 29.81 in 10.0 mi WNW 8.1 mph - N/A   Scattered Clouds
7:18 AM 37.4 °F 32.8 °F 32.0 °F 81% 29.81 in 10.0 mi WNW 5.8 mph - N/A   Mostly Cloudy
7:39 AM 37.4 °F 33.8 °F 30.2 °F 75% 29.84 in 10.0 mi WNW 4.6 mph - N/A   Scattered Clouds
7:57 AM 35.6 °F 30.7 °F 32.0 °F 87% 29.85 in 10.0 mi WNW 5.8 mph - N/A   Mostly Cloudy
8:18 AM 37.4 °F 30.3 °F 32.0 °F 81% 29.86 in 10.0 mi West 10.4 mph - N/A   Mostly Cloudy
8:39 AM 39.2 °F 35.9 °F 30.2 °F 70% 29.89 in 10.0 mi West 4.6 mph - N/A   Overcast
8:57 AM 41.0 °F 39.0 °F 32.0 °F 70% 29.91 in 10.0 mi West 3.5 mph - N/A   Overcast
9:18 AM 41.0 °F 36.4 °F 30.2 °F 65% 29.92 in 10.0 mi NW 6.9 mph - N/A   Overcast
9:39 AM 41.0 °F 37.1 °F 30.2 °F 65% 29.94 in 10.0 mi WNW 5.8 mph - N/A   Overcast
9:57 AM 42.8 °F 37.0 °F 32.0 °F 66% 29.95 in 10.0 mi WNW 10.4 mph - N/A   Overcast
10:18 AM 42.8 °F 36.6 °F 32.0 °F 66% 29.95 in 10.0 mi WNW 11.5 mph 18.4 mph N/A   Overcast
10:39 AM 42.8 °F 36.6 °F 30.2 °F 61% 29.96 in 10.0 mi WNW 11.5 mph 16.1 mph N/A   Overcast
10:57 AM 42.8 °F 38.6 °F 30.2 °F 61% 29.96 in 10.0 mi West 6.9 mph 19.6 mph N/A   Overcast
11:18 AM 44.6 °F 38.1 °F 30.2 °F 57% 29.97 in 10.0 mi West 13.8 mph 19.6 mph N/A   Overcast
11:39 AM 46.4 °F 39.8 °F 32.0 °F 57% 29.96 in 10.0 mi WNW 16.1 mph 23.0 mph N/A   Mostly Cloudy
11:57 AM 46.4 °F 40.7 °F 30.2 °F 53% 29.95 in 10.0 mi West 12.7 mph 24.2 mph N/A   Scattered Clouds
12:18 PM 46.4 °F 41.1 °F 30.2 °F 53% 29.95 in 10.0 mi WNW 11.5 mph 19.6 mph N/A   Clear
12:39 PM 44.6 °F 39.2 °F 30.2 °F 57% 29.96 in 10.0 mi West 10.4 mph 18.4 mph N/A   Scattered Clouds
1:00 PM 50.0 °F - 32.0 °F 50% 29.96 in 10.0 mi West 18.4 mph 29.9 mph N/A   Scattered Clouds
1:18 PM 46.4 °F 40.1 °F 30.2 °F 53% 29.96 in 10.0 mi West 15.0 mph 25.3 mph N/A   Scattered Clouds
1:39 PM 46.4 °F 39.5 °F 30.2 °F 53% 29.97 in 10.0 mi West 17.3 mph 26.5 mph N/A   Clear
2:00 PM 48.2 °F - 30.2 °F 50% 29.98 in 10.0 mi WNW 9.2 mph 19.6 mph N/A   Clear
2:18 PM 48.2 °F - 30.2 °F 50% 29.99 in 10.0 mi West 10.4 mph - N/A   Scattered Clouds
2:39 PM 48.2 °F - 30.2 °F 50% 29.99 in 10.0 mi West 17.3 mph 26.5 mph N/A   Clear
3:00 PM 48.2 °F - 30.2 °F 50% 30.01 in 10.0 mi West 13.8 mph 24.2 mph N/A   Clear
3:18 PM 48.2 °F - 30.2 °F 50% 30.02 in 10.0 mi WNW 9.2 mph 16.1 mph N/A   Clear
3:39 PM 46.4 °F 39.8 °F 30.2 °F 53% 30.03 in 10.0 mi West 16.1 mph 19.6 mph N/A   Clear
4:00 PM 46.4 °F 41.5 °F 30.2 °F 53% 30.03 in 10.0 mi WNW 10.4 mph 18.4 mph N/A   Clear
4:18 PM 46.4 °F 42.4 °F 30.2 °F 53% 30.04 in 10.0 mi West 8.1 mph - N/A   Clear
4:39 PM 44.6 °F 40.2 °F 30.2 °F 57% 30.05 in 10.0 mi West 8.1 mph - N/A   Clear
5:00 PM 42.8 °F 39.3 °F 30.2 °F 61% 30.05 in 10.0 mi WNW 5.8 mph - N/A   Clear
5:18 PM 42.8 °F - 30.2 °F 61% 30.06 in 10.0 mi Calm Calm - N/A   Clear
5:39 PM 39.2 °F - 30.2 °F 70% 30.07 in 10.0 mi Calm Calm - N/A   Clear
6:00 PM 35.6 °F - 30.2 °F 81% 30.08 in 10.0 mi Calm Calm - N/A   Clear
6:18 PM 33.8 °F - 30.2 °F 87% 30.08 in 10.0 mi Calm Calm - N/A   Clear
6:39 PM 33.8 °F - 30.2 °F 87% 30.09 in 10.0 mi Calm Calm - N/A   Clear
7:00 PM 33.8 °F - 30.2 °F 87% 30.10 in 10.0 mi Calm Calm - N/A   Clear
7:18 PM 32.0 °F - 28.4 °F 87% 30.11 in 10.0 mi Calm Calm - N/A   Clear
7:39 PM 32.0 °F - 28.4 °F 87% 30.12 in 10.0 mi Calm Calm - N/A   Clear
8:00 PM 32.0 °F - 28.4 °F 87% 30.12 in 10.0 mi Calm Calm - N/A   Clear
8:18 PM 30.2 °F - 28.4 °F 93% 30.12 in 10.0 mi Calm Calm - N/A   Clear
8:39 PM 30.2 °F - 28.4 °F 93% 30.13 in 10.0 mi Calm Calm - N/A   Clear
9:00 PM 30.2 °F - 28.4 °F 93% 30.13 in 10.0 mi Calm Calm - N/A   Clear
9:21 PM 30.2 °F - 28.4 °F 93% 30.13 in 10.0 mi Calm Calm - N/A   Clear
9:39 PM 30.2 °F - 28.4 °F 93% 30.13 in 7.0 mi Calm Calm - N/A   Clear
10:00 PM 28.4 °F - 28.4 °F 100% 30.13 in 7.0 mi Calm Calm - N/A   Clear
10:21 PM 28.4 °F - 28.4 °F 100% 30.14 in 7.0 mi Calm Calm - N/A   Clear
10:39 PM 28.4 °F - 28.4 °F 100% 30.14 in 7.0 mi Calm Calm - N/A   Clear
11:00 PM 28.4 °F - 26.6 °F 93% 30.14 in 7.0 mi Calm Calm - N/A   Clear
11:21 PM 28.4 °F - 26.6 °F 93% 30.14 in 7.0 mi Calm Calm - N/A   Clear
11:39 PM 28.4 °F - 26.6 °F 93% 30.14 in 7.0 mi Calm Calm - N/A   Clear